Time,TemperatureF,DewpointF,PressureIn,WindDirection,WindDirectionDegrees,WindSpeedMPH,WindSpeedGustMPH,Humidity,HourlyPrecipIn,Conditions,Clouds,dailyrainin,SoftwareType,DateUTC
2013-03-16 00:02:00,53.0,9.0,-100.00,WNW,287,7.0,12.0,17,-99.99,,,-99.99,,2013-03-16 07:02:00,
2013-03-16 00:12:00,51.0,10.0,-100.00,West,277,3.0,7.0,19,-99.99,,,-99.99,,2013-03-16 07:12:00,
2013-03-16 00:22:00,48.0,10.0,-100.00,North,349,3.0,5.0,21,-99.99,,,-99.99,,2013-03-16 07:22:00,
2013-03-16 00:32:00,50.0,7.0,-100.00,NNW,330,3.0,5.0,17,-99.99,,,-99.99,,2013-03-16 07:32:00,
2013-03-16 00:42:00,48.0,10.0,-100.00,ESE,116,1.0,4.0,21,-99.99,,,-99.99,,2013-03-16 07:42:00,
2013-03-16 00:52:00,48.0,11.0,-100.00,ENE,61,1.0,3.0,22,-99.99,,,-99.99,,2013-03-16 07:52:00,
2013-03-16 01:02:00,49.0,12.0,-100.00,SSW,205,3.0,12.0,22,-99.99,,,-99.99,,2013-03-16 08:02:00,
2013-03-16 01:12:00,49.0,17.0,-100.00,WSW,244,8.0,17.0,28,-99.99,,,-99.99,,2013-03-16 08:12:00,
2013-03-16 01:22:00,48.0,19.0,-100.00,WSW,243,11.0,20.0,31,-99.99,,,-99.99,,2013-03-16 08:22:00,
2013-03-16 01:32:00,48.0,19.0,-100.00,WSW,246,12.0,20.0,31,-99.99,,,-99.99,,2013-03-16 08:32:00,
2013-03-16 01:42:00,48.0,19.0,-100.00,WSW,250,9.0,15.0,31,-99.99,,,-99.99,,2013-03-16 08:42:00,
2013-03-16 01:52:00,48.0,14.0,-100.00,NW,318,4.0,10.0,25,-99.99,,,-99.99,,2013-03-16 08:52:00,
2013-03-16 02:01:00,48.0,14.0,-100.00,NNE,24,3.0,6.0,25,-99.99,,,-99.99,,2013-03-16 09:01:00,
2013-03-16 02:12:00,48.0,13.0,-100.00,West,272,3.0,7.0,24,-99.99,,,-99.99,,2013-03-16 09:12:00,
2013-03-16 02:22:00,51.0,10.0,-100.00,West,275,5.0,10.0,19,-99.99,,,-99.99,,2013-03-16 09:22:00,
2013-03-16 02:32:00,52.0,11.0,-100.00,WNW,284,8.0,14.0,19,-99.99,,,-99.99,,2013-03-16 09:32:00,
2013-03-16 02:42:00,49.0,14.0,-100.00,SW,223,4.0,10.0,24,-99.99,,,-99.99,,2013-03-16 09:42:00,
2013-03-16 02:52:00,48.0,16.0,-100.00,ENE,66,3.0,9.0,27,-99.99,,,-99.99,,2013-03-16 09:52:00,
2013-03-16 03:03:00,47.0,17.0,-100.00,NNE,18,5.0,8.0,30,-99.99,,,-99.99,,2013-03-16 10:03:00,
2013-03-16 03:12:00,46.0,17.0,-100.00,North,6,4.0,8.0,31,-99.99,,,-99.99,,2013-03-16 10:12:00,
2013-03-16 03:22:00,46.0,18.0,-100.00,North,353,4.0,6.0,32,-99.99,,,-99.99,,2013-03-16 10:22:00,
2013-03-16 03:32:00,47.0,18.0,-100.00,NW,325,1.0,5.0,31,-99.99,,,-99.99,,2013-03-16 10:32:00,
2013-03-16 03:42:00,46.0,15.0,-100.00,West,275,0.0,3.0,28,-99.99,,,-99.99,,2013-03-16 10:42:00,
2013-03-16 03:52:00,46.0,16.0,-100.00,WNW,298,1.0,4.0,30,-99.99,,,-99.99,,2013-03-16 10:52:00,
2013-03-16 04:03:00,47.0,16.0,-100.00,NW,309,1.0,3.0,29,-99.99,,,-99.99,,2013-03-16 11:03:00,
2013-03-16 04:12:00,47.0,16.0,-100.00,WNW,285,1.0,4.0,29,-99.99,,,-99.99,,2013-03-16 11:12:00,
2013-03-16 04:22:00,47.0,16.0,-100.00,West,278,1.0,4.0,29,-99.99,,,-99.99,,2013-03-16 11:22:00,
2013-03-16 04:32:00,44.0,16.0,-100.00,NE,40,1.0,4.0,32,-99.99,,,-99.99,,2013-03-16 11:32:00,
2013-03-16 04:42:00,43.0,17.0,-100.00,ENE,72,1.0,3.0,34,-99.99,,,-99.99,,2013-03-16 11:42:00,
2013-03-16 04:52:00,43.0,17.0,-100.00,ENE,75,1.0,3.0,34,-99.99,,,-99.99,,2013-03-16 11:52:00,
2013-03-16 05:01:00,43.0,15.0,-100.00,NNE,25,2.0,4.0,32,-99.99,,,-99.99,,2013-03-16 12:01:00,
2013-03-16 05:12:00,43.0,16.0,-100.00,ESE,119,0.0,3.0,33,-99.99,,,-99.99,,2013-03-16 12:12:00,
2013-03-16 05:22:00,43.0,17.0,-100.00,West,271,1.0,3.0,35,-99.99,,,-99.99,,2013-03-16 12:22:00,
2013-03-16 05:32:00,44.0,17.0,-100.00,West,268,2.0,3.0,34,-99.99,,,-99.99,,2013-03-16 12:32:00,
2013-03-16 05:42:00,44.0,17.0,-100.00,West,275,1.0,3.0,34,-99.99,,,-99.99,,2013-03-16 12:42:00,
2013-03-16 05:52:00,43.0,17.0,-100.00,WSW,241,0.0,1.0,35,-99.99,,,-99.99,,2013-03-16 12:52:00,
2013-03-16 06:02:00,44.0,18.0,-100.00,West,260,3.0,5.0,35,-99.99,,,-99.99,,2013-03-16 13:02:00,
2013-03-16 06:12:00,44.0,18.0,-100.00,West,260,3.0,4.0,35,-99.99,,,-99.99,,2013-03-16 13:12:00,
2013-03-16 06:22:00,44.0,17.0,-100.00,WSW,250,3.0,5.0,34,-99.99,,,-99.99,,2013-03-16 13:22:00,
2013-03-16 06:32:00,44.0,17.0,-100.00,WSW,251,3.0,4.0,34,-99.99,,,-99.99,,2013-03-16 13:32:00,
2013-03-16 06:42:00,44.0,18.0,-100.00,WSW,243,1.0,3.0,35,-99.99,,,-99.99,,2013-03-16 13:42:00,
2013-03-16 06:52:00,44.0,19.0,-100.00,WSW,250,2.0,4.0,36,-99.99,,,-99.99,,2013-03-16 13:52:00,
2013-03-16 07:02:00,43.0,19.0,-100.00,WSW,247,2.0,5.0,37,-99.99,,,-99.99,,2013-03-16 14:02:00,
2013-03-16 07:12:00,43.0,19.0,-100.00,WSW,257,2.0,4.0,37,-99.99,,,-99.99,,2013-03-16 14:12:00,
2013-03-16 07:22:00,43.0,20.0,-100.00,West,263,2.0,4.0,40,-99.99,,,-99.99,,2013-03-16 14:22:00,
2013-03-16 07:32:00,42.0,19.0,-100.00,WSW,256,1.0,3.0,40,-99.99,,,-99.99,,2013-03-16 14:32:00,
2013-03-16 07:42:00,42.0,19.0,-100.00,WSW,258,0.0,3.0,40,-99.99,,,-99.99,,2013-03-16 14:42:00,
2013-03-16 07:52:00,42.0,21.0,-100.00,WNW,302,0.0,3.0,42,-99.99,,,-99.99,,2013-03-16 14:52:00,
2013-03-16 08:02:00,41.0,20.0,-100.00,NNW,347,0.0,3.0,43,-99.99,,,-99.99,,2013-03-16 15:02:00,
2013-03-16 08:12:00,41.0,20.0,-100.00,SW,230,2.0,4.0,43,-99.99,,,-99.99,,2013-03-16 15:12:00,
2013-03-16 08:22:00,43.0,19.0,-100.00,SSW,200,1.0,6.0,38,-99.99,,,-99.99,,2013-03-16 15:22:00,
2013-03-16 08:33:00,42.0,19.0,-100.00,SW,230,3.0,5.0,39,-99.99,,,-99.99,,2013-03-16 15:33:00,
2013-03-16 08:43:00,43.0,20.0,-100.00,SW,222,2.0,5.0,40,-99.99,,,-99.99,,2013-03-16 15:43:00,
2013-03-16 08:52:00,43.0,22.0,-100.00,SSW,209,3.0,5.0,43,-99.99,,,-99.99,,2013-03-16 15:52:00,
2013-03-16 09:02:00,43.0,23.0,-100.00,SW,224,2.0,5.0,44,-99.99,,,-99.99,,2013-03-16 16:02:00,
2013-03-16 09:12:00,44.0,23.0,-100.00,South,186,2.0,5.0,43,-99.99,,,-99.99,,2013-03-16 16:12:00,
2013-03-16 09:22:00,44.0,22.0,-100.00,South,174,2.0,5.0,41,-99.99,,,-99.99,,2013-03-16 16:22:00,
2013-03-16 09:33:00,45.0,23.0,-100.00,SSE,160,1.0,4.0,41,-99.99,,,-99.99,,2013-03-16 16:33:00,
2013-03-16 09:42:00,45.0,22.0,-100.00,SE,131,3.0,5.0,39,-99.99,,,-99.99,,2013-03-16 16:42:00,
2013-03-16 09:52:00,47.0,24.0,-100.00,SSE,152,3.0,7.0,40,-99.99,,,-99.99,,2013-03-16 16:52:00,
2013-03-16 10:02:00,47.0,24.0,-100.00,SSE,160,3.0,6.0,40,-99.99,,,-99.99,,2013-03-16 17:02:00,
2013-03-16 10:12:00,48.0,23.0,-100.00,SE,140,3.0,6.0,37,-99.99,,,-99.99,,2013-03-16 17:12:00,
2013-03-16 10:22:00,48.0,24.0,-100.00,SSE,162,3.0,7.0,38,-99.99,,,-99.99,,2013-03-16 17:22:00,
2013-03-16 10:32:00,48.0,24.0,-100.00,SSE,164,3.0,6.0,39,-99.99,,,-99.99,,2013-03-16 17:32:00,
2013-03-16 10:42:00,49.0,23.0,-100.00,ESE,113,3.0,6.0,35,-99.99,,,-99.99,,2013-03-16 17:42:00,
2013-03-16 10:52:00,50.0,23.0,-100.00,SE,133,3.0,7.0,35,-99.99,,,-99.99,,2013-03-16 17:52:00,
2013-03-16 11:02:00,52.0,24.0,-100.00,ESE,116,2.0,6.0,33,-99.99,,,-99.99,,2013-03-16 18:02:00,
2013-03-16 11:13:00,52.0,15.0,-100.00,South,178,5.0,15.0,23,-99.99,,,-99.99,,2013-03-16 18:13:00,
2013-03-16 11:22:00,52.0,22.0,-100.00,SSW,208,10.0,25.0,31,-99.99,,,-99.99,,2013-03-16 18:22:00,
2013-03-16 11:32:00,53.0,12.0,-100.00,SW,220,13.0,23.0,19,-99.99,,,-99.99,,2013-03-16 18:32:00,
2013-03-16 11:42:00,53.0,11.0,-100.00,SW,222,13.0,22.0,18,-99.99,,,-99.99,,2013-03-16 18:42:00,
2013-03-16 11:52:00,54.0,11.0,-100.00,SW,227,13.0,26.0,18,-99.99,,,-99.99,,2013-03-16 18:52:00,
2013-03-16 12:02:00,54.0,11.0,-100.00,SW,224,14.0,26.0,18,-99.99,,,-99.99,,2013-03-16 19:02:00,
2013-03-16 12:12:00,54.0,11.0,-100.00,SW,224,16.0,27.0,18,-99.99,,,-99.99,,2013-03-16 19:12:00,
2013-03-16 12:22:00,54.0,11.0,-100.00,SW,224,15.0,26.0,18,-99.99,,,-99.99,,2013-03-16 19:22:00,
2013-03-16 12:32:00,55.0,11.0,-100.00,WSW,237,14.0,26.0,17,-99.99,,,-99.99,,2013-03-16 19:32:00,
2013-03-16 12:42:00,55.0,10.0,-100.00,WSW,239,13.0,26.0,16,-99.99,,,-99.99,,2013-03-16 19:42:00,
2013-03-16 12:52:00,55.0,11.0,-100.00,SW,230,15.0,27.0,17,-99.99,,,-99.99,,2013-03-16 19:52:00,
2013-03-16 13:02:00,56.0,12.0,-100.00,SW,236,13.0,25.0,17,-99.99,,,-99.99,,2013-03-16 20:02:00,
2013-03-16 13:12:00,56.0,10.0,-100.00,WSW,246,14.0,25.0,16,-99.99,,,-99.99,,2013-03-16 20:12:00,
2013-03-16 13:21:00,56.0,10.0,-100.00,WSW,246,15.0,25.0,16,-99.99,,,-99.99,,2013-03-16 20:21:00,
2013-03-16 13:32:00,56.0,10.0,-100.00,WSW,248,17.0,28.0,16,-99.99,,,-99.99,,2013-03-16 20:32:00,
2013-03-16 13:42:00,56.0,10.0,-100.00,WSW,241,16.0,29.0,16,-99.99,,,-99.99,,2013-03-16 20:42:00,
2013-03-16 13:52:00,56.0,10.0,-100.00,SW,234,15.0,24.0,16,-99.99,,,-99.99,,2013-03-16 20:52:00,
2013-03-16 14:02:00,56.0,12.0,-100.00,SW,226,15.0,27.0,17,-99.99,,,-99.99,,2013-03-16 21:02:00,
2013-03-16 14:12:00,56.0,12.0,-100.00,SW,230,14.0,25.0,17,-99.99,,,-99.99,,2013-03-16 21:12:00,
2013-03-16 14:22:00,55.0,14.0,-100.00,SW,226,16.0,28.0,19,-99.99,,,-99.99,,2013-03-16 21:22:00,
2013-03-16 14:32:00,56.0,16.0,-100.00,SW,226,15.0,26.0,20,-99.99,,,-99.99,,2013-03-16 21:32:00,
2013-03-16 14:43:00,56.0,16.0,-100.00,SW,233,19.0,32.0,20,-99.99,,,-99.99,,2013-03-16 21:43:00,
2013-03-16 14:52:00,55.0,14.0,-100.00,SW,234,18.0,29.0,19,-99.99,,,-99.99,,2013-03-16 21:52:00,
2013-03-16 15:03:00,56.0,16.0,-100.00,SW,230,19.0,31.0,20,-99.99,,,-99.99,,2013-03-16 22:03:00,
2013-03-16 15:12:00,55.0,16.0,-100.00,WSW,240,19.0,34.0,21,-99.99,,,-99.99,,2013-03-16 22:12:00,
2013-03-16 15:22:00,54.0,16.0,-100.00,WSW,241,17.0,30.0,22,-99.99,,,-99.99,,2013-03-16 22:22:00,
2013-03-16 15:32:00,54.0,16.0,-100.00,SW,236,18.0,30.0,22,-99.99,,,-99.99,,2013-03-16 22:32:00,
2013-03-16 15:42:00,53.0,17.0,-100.00,WSW,240,20.0,34.0,24,-99.99,,,-99.99,,2013-03-16 22:42:00,
2013-03-16 15:52:00,54.0,18.0,-100.00,SW,236,19.0,34.0,24,-99.99,,,-99.99,,2013-03-16 22:52:00,
2013-03-16 16:02:00,54.0,18.0,-100.00,SW,236,19.0,34.0,24,-99.99,,,-99.99,,2013-03-16 23:02:00,
2013-03-16 16:12:00,53.0,19.0,-100.00,SW,229,20.0,35.0,26,-99.99,,,-99.99,,2013-03-16 23:12:00,
2013-03-16 16:22:00,53.0,19.0,-100.00,SW,229,20.0,35.0,26,-99.99,,,-99.99,,2013-03-16 23:22:00,
2013-03-16 16:52:00,53.0,22.0,-100.00,WSW,237,19.0,34.0,30,-99.99,,,-99.99,,2013-03-16 23:52:00,
2013-03-16 17:01:00,53.0,22.0,-100.00,WSW,237,19.0,34.0,30,-99.99,,,-99.99,,2013-03-17 00:01:00,
2013-03-16 17:12:00,52.0,21.0,-100.00,SW,232,20.0,33.0,30,-99.99,,,-99.99,,2013-03-17 00:12:00,
2013-03-16 17:22:00,52.0,21.0,-100.00,SW,232,20.0,33.0,30,-99.99,,,-99.99,,2013-03-17 00:22:00,
2013-03-16 18:32:00,50.0,18.0,-100.00,WSW,246,17.0,29.0,27,-99.99,,,-99.99,,2013-03-17 01:32:00,
2013-03-16 18:42:00,50.0,18.0,-100.00,WSW,246,17.0,29.0,27,-99.99,,,-99.99,,2013-03-17 01:42:00,
2013-03-16 18:53:00,50.0,18.0,-100.00,WSW,244,19.0,37.0,28,-99.99,,,-99.99,,2013-03-17 01:53:00,
2013-03-16 19:02:00,50.0,18.0,-100.00,WSW,244,19.0,37.0,28,-99.99,,,-99.99,,2013-03-17 02:02:00,
2013-03-16 19:12:00,49.0,20.0,-100.00,WSW,244,20.0,34.0,31,-99.99,,,-99.99,,2013-03-17 02:12:00,
2013-03-16 19:22:00,49.0,20.0,-100.00,WSW,244,20.0,34.0,31,-99.99,,,-99.99,,2013-03-17 02:22:00,
2013-03-16 20:12:00,47.0,21.0,-100.00,WSW,248,16.0,32.0,36,-99.99,,,-99.99,,2013-03-17 03:12:00,
2013-03-16 20:22:00,47.0,21.0,-100.00,WSW,248,16.0,32.0,36,-99.99,,,-99.99,,2013-03-17 03:22:00,
2013-03-16 20:33:00,47.0,20.0,-100.00,WSW,250,15.0,29.0,34,-99.99,,,-99.99,,2013-03-17 03:33:00,
2013-03-16 20:43:00,47.0,20.0,-100.00,WSW,250,15.0,29.0,34,-99.99,,,-99.99,,2013-03-17 03:43:00,
2013-03-16 20:53:00,46.0,21.0,-100.00,WSW,256,14.0,26.0,37,-99.99,,,-99.99,,2013-03-17 03:53:00,
2013-03-16 21:03:00,46.0,21.0,-100.00,WSW,256,14.0,26.0,37,-99.99,,,-99.99,,2013-03-17 04:03:00,
2013-03-16 21:32:00,45.0,21.0,-100.00,WSW,247,10.0,21.0,38,-99.99,,,-99.99,,2013-03-17 04:32:00,
2013-03-16 21:42:00,45.0,21.0,-100.00,WSW,247,10.0,21.0,38,-99.99,,,-99.99,,2013-03-17 04:42:00,
2013-03-16 22:32:00,44.0,20.0,-100.00,WSW,248,19.0,33.0,38,-99.99,,,-99.99,,2013-03-17 05:32:00,
2013-03-16 22:42:00,44.0,20.0,-100.00,WSW,248,19.0,33.0,38,-99.99,,,-99.99,,2013-03-17 05:42:00,
2013-03-16 23:32:00,44.0,20.0,-100.00,WSW,247,19.0,32.0,39,-99.99,,,-99.99,,2013-03-17 06:32:00,
2013-03-16 23:42:00,44.0,20.0,-100.00,WSW,247,19.0,32.0,39,-99.99,,,-99.99,,2013-03-17 06:42:00,